Weather History for Jacksonville Craig, FL

Change the Weather History Date:

Monday, January 13, 2014

  Actual Average Record
Temperature  
Mean Temperature 57 °F -  
Max Temperature 72 °F 63 °F 80 °F (2013)
Min Temperature 42 °F 42 °F 26 °F (2011)
Degree Days  
Heating Degree Days 8    
Growing Degree Days 7 (Base 50)    
Moisture  
Dew Point 50 °F    
Average Humidity 76    
Maximum Humidity 92    
Minimum Humidity 51    
Precipitation  
Precipitation 0.00 in - - ()
Sea Level Pressure  
Sea Level Pressure 30.10 in    
Wind  
Wind Speed 2 mph (SE)    
Max Wind Speed 10 mph    
Max Gust Speed -    
Visibility 10 miles    
Events Rain    
Averages and records for this station are not official NWS values.
T = Trace of Precipitation, MM = Missing Value Source: NWS Daily Summary

Daily Weather History Graph

Daily Weather History Graph

Search for Another Location

Airport:

Trip Planner

Search our weather history database for the weather conditions in past years. The results will help you decide how hot, cold, wet, or windy it might be!

Date:

Astronomy

Jan. 13, 2014 Rise Set
Actual Time 7:23 AM EST 5:46 PM EST
Civil Twilight 6:57 AM EST 6:12 PM EST
Nautical Twilight 6:28 AM EST 6:41 PM EST
Astronomical Twilight 5:59 AM EST 7:10 PM EST
Moon 3:58 PM EST (1/13) 5:12 AM EST (1/13)
Length of Visible Light 11h 14m
Length of Day
10h 22m
Waxing Gibbous, 95% of the Moon is Illuminated
Jan 13
Waxing Gibbous
Jan 15
Full
Jan 24
Last Quarter
Jan 30
New
Feb 6
First Quarter

Hourly Weather History & Observations

Time (EST) Temp. Dew Point Humidity Pressure Visibility Wind Dir Wind Speed Gust Speed Precip Events Conditions
12:53 AM 44.1 °F 41.0 °F 89% 30.20 in 10.0 mi Calm Calm - N/A   Clear
1:53 AM 44.1 °F 39.9 °F 85% 30.19 in 10.0 mi Calm Calm - N/A   Clear
2:53 AM 42.1 °F 39.9 °F 92% 30.19 in 10.0 mi Calm Calm - 0.00 in Rain Light Rain
3:53 AM 44.1 °F 39.9 °F 85% 30.19 in 10.0 mi Calm Calm - 0.00 in   Clear
4:53 AM 44.1 °F 41.0 °F 89% 30.18 in 10.0 mi Calm Calm - N/A   Clear
5:53 AM 46.0 °F 43.0 °F 89% 30.18 in 10.0 mi Calm Calm - N/A   Clear
6:53 AM 45.0 °F 42.1 °F 90% 30.17 in 10.0 mi Calm Calm - N/A   Clear
7:53 AM 46.9 °F 44.1 °F 90% 30.19 in 10.0 mi Calm Calm - N/A   Clear
8:53 AM 53.1 °F 48.9 °F 86% 30.19 in 10.0 mi Calm Calm - N/A   Clear
9:53 AM 60.1 °F 52.0 °F 75% 30.19 in 10.0 mi East 5.8 mph - N/A   Clear
10:53 AM 64.9 °F 50.0 °F 58% 30.16 in 10.0 mi East 8.1 mph - N/A   Clear
11:53 AM 66.9 °F 51.1 °F 57% 30.13 in 10.0 mi SSE 10.4 mph - N/A   Clear
12:53 PM 70.0 °F 52.0 °F 53% 30.09 in 10.0 mi South 6.9 mph - N/A   Partly Cloudy
1:53 PM 72.0 °F 53.1 °F 51% 30.06 in 10.0 mi Variable 6.9 mph - N/A   Scattered Clouds
2:53 PM 71.1 °F 55.0 °F 57% 30.04 in 10.0 mi ESE 5.8 mph - N/A   Mostly Cloudy
3:53 PM 69.1 °F 54.0 °F 58% 30.03 in 10.0 mi ESE 6.9 mph - N/A   Partly Cloudy
4:53 PM 68.0 °F 55.0 °F 63% 30.02 in 10.0 mi SSE 5.8 mph - N/A   Clear
5:53 PM 64.9 °F 55.9 °F 73% 30.02 in 10.0 mi SE 6.9 mph - N/A   Mostly Cloudy
6:53 PM 64.0 °F 55.9 °F 75% 30.00 in 10.0 mi SE 4.6 mph - N/A   Clear
7:53 PM 64.0 °F 55.9 °F 75% 30.02 in 10.0 mi SSE 3.5 mph - N/A   Clear
8:53 PM 63.0 °F 57.0 °F 81% 30.02 in 10.0 mi Calm Calm - N/A   Clear
9:53 PM 62.1 °F 57.0 °F 84% 30.00 in 10.0 mi SE 3.5 mph - N/A   Scattered Clouds
10:53 PM 63.0 °F 57.0 °F 81% 29.97 in 10.0 mi SE 3.5 mph - N/A   Overcast
11:53 PM 66.9 °F 59.0 °F 76% 29.91 in 10.0 mi SSE 8.1 mph - 0.00 in   Overcast